Regional Weather Roundup
Issued by NWS

Home | Current Version | Previous Version | Graphics & Text | Print | Product List | Glossary On
Versions: 1 2 3 4 5 6 7 8 9 10 11 12 13 14 15 16 17 18 19 20 21 22 23 24 25 26 27 28 29 30 31 32 33 34 35 36 37 38 39 40 41 42 43 44 45 46 47 48 49 50
000
ASUS44 KMEG 281210
RWRTN
TENNESSEE HOURLY STATE WEATHER ROUNDUP
NATIONAL WEATHER SERVICE MEMPHIS TN
700 AM CDT TUE APR 28 2015

TNZ002-004-019-021-049-052-054-088>092-281300-
WEST TENNESSEE

CITY           SKY/WX    TMP DP  RH WIND       PRES   REMARKS
MEMPHIS INTL   CLOUDY    54  41  61 NE12      29.98R
NWS MEMPHIS      N/A     52 N/A N/A MISG        N/A
JACKSON        CLOUDY    48  41  76 NE8       30.00R
DYERSBURG      CLOUDY    48  30  49 NE9       30.04R
UNION CITY     CLEAR     45  32  61 N7        30.02S
PARIS          SUNNY     43  39  87 NE8       30.03R
LEXINGTON      SUNNY     45  39  81 CALM      29.98R
SAVANNAH       SUNNY     45  32  61 CALM      29.98R
$$

TNZ008-025-027-028-033-062-065-066-281300-
NORTH MIDDLE TENNESSEE

CITY           SKY/WX    TMP DP  RH WIND       PRES   REMARKS
NASHVILLE      MOSUNNY   48  41  76 NE7       30.01R
CLARKSVILLE    FAIR      47  40  76 NE8       30.03R
SMYRNA         SUNNY     48  41  77 N9        30.02R
COOKEVILLE     SUNNY     45  39  81 N3        29.97S
CROSSVILLE     SUNNY     43  36  76 NE7       29.99R
$$

TNZ061-075-076-078-094-096-097-281300-
SOUTH MIDDLE TENNESSEE

CITY           SKY/WX    TMP DP  RH WIND       PRES   REMARKS
FAYETTEVILLE   SUNNY     45  39  81 NE6       29.95R
TULLAHOMA      SUNNY     46  37  71 NE5       29.97R
WINCHESTER     SUNNY     43  41  93 CALM      29.96R
MCMINNVILLE    SUNNY     45  45 100 NE7       29.98R
COLUMBIA       SUNNY     43  32  65 CALM      29.96R
SHELBYVILLE    SUNNY     46  43  87 CALM      29.98R
$$

TNZ017-018-042-046-047-281300-
NORTHEAST TENNESSEE

CITY           SKY/WX    TMP DP  RH WIND       PRES   REMARKS
TRI CITIES     SUNNY     41  38  89 CALM      30.03R
ELIZABETHTON   SUNNY     37  34  87 CALM      30.02R
$$

TNZ012-013-036-069-073-074-281300-
CENTRAL EAST TENNESSEE

CITY           SKY/WX    TMP DP  RH WIND       PRES   REMARKS
KNOXVILLE      MOSUNNY   46  39  76 NE9       29.99R
OAK RIDGE      SUNNY     47  40  76 VRB3      30.02R
GATLINBURG     SUNNY     39  37  93 CALM      30.00R
MORRISTOWN     SUNNY     46  37  71 E5        30.02R
$$

TNZ083-085-099-281300-
SOUTHEAST TENNESSEE

CITY           SKY/WX    TMP DP  RH WIND       PRES   REMARKS
CHATTANOOGA    MOSUNNY   51  41  68 N8        29.97R
$$

SKY/WX REPORTED AS FAIR MEANS FEW OR NO CLOUDS BELOW
12 THOUSAND FEET.




USA.gov is the U.S. government's official web portal to all federal, state and local government web resources and services.